Location: Recife
(8.0585°S, 34.8848°W)
Time: 09:49:40
(UTC-03:00)

Courier 1B Rocket - Pass Details

Date: 18 April 2026
Orbit: 920 x 1201 km, 28.2° (Epoch: 13 May)

Event Time Altitude Azimuth Distance (km) Brightness Sun altitude
Rises 09:18:42 0° 227° (SW) 3,818 7.8 54.6°
Reaches altitude 10° 09:22:35 10° 206° (SSW) 2,924 7.3 55.4°
Maximum altitude 09:26:57 17° 169° (SSE) 2,520 7.2 56.3°
Drops below altitude 10° 09:31:28 10° 131° (SE) 3,042 7.8 57.2°
Sets 09:35:37 0° 112° (ESE) 4,046 8.5 58.0°
